Year,Month,Day,Hour,Minute,Value (Times are PST for temperature in C)
2014,05,14,00,00,15.40
2014,05,14,00,01,15.40
2014,05,14,00,02,15.40
2014,05,14,00,03,15.40
2014,05,14,00,04,15.30
2014,05,14,00,05,15.30
2014,05,14,00,06,15.30
2014,05,14,00,07,15.30
2014,05,14,00,08,15.30
2014,05,14,00,09,15.30
2014,05,14,00,10,15.20
2014,05,14,00,11,15.20
2014,05,14,00,12,15.20
2014,05,14,00,13,15.20
2014,05,14,00,14,15.10
2014,05,14,00,15,15.10
2014,05,14,00,16,15.10
2014,05,14,00,17,15.10
2014,05,14,00,18,15.10
2014,05,14,00,19,15.10
2014,05,14,00,20,15.10
2014,05,14,00,21,15.10
2014,05,14,00,22,15.10
2014,05,14,00,23,15.10
2014,05,14,00,24,15.10
2014,05,14,00,25,15.00
2014,05,14,00,26,15.00
2014,05,14,00,27,14.90
2014,05,14,00,28,14.90
2014,05,14,00,29,14.90
2014,05,14,00,30,14.90
2014,05,14,00,31,14.80
2014,05,14,00,32,14.80
2014,05,14,00,33,14.80
2014,05,14,00,34,14.90
2014,05,14,00,35,14.80
2014,05,14,00,36,14.80
2014,05,14,00,37,14.80
2014,05,14,00,38,14.80
2014,05,14,00,39,14.80
2014,05,14,00,40,14.70
2014,05,14,00,41,14.70
2014,05,14,00,42,14.70
2014,05,14,00,43,14.60
2014,05,14,00,44,14.60
2014,05,14,00,45,14.60
2014,05,14,00,46,14.50
2014,05,14,00,47,14.50
2014,05,14,00,48,14.40
2014,05,14,00,49,14.40
2014,05,14,00,50,14.40
2014,05,14,00,51,14.40
2014,05,14,00,52,14.30
2014,05,14,00,53,14.30
2014,05,14,00,54,14.30
2014,05,14,00,55,14.30
2014,05,14,00,56,14.30
2014,05,14,00,57,14.30
2014,05,14,00,58,14.30
2014,05,14,00,59,14.20
2014,05,14,01,00,14.20
2014,05,14,01,01,14.20
2014,05,14,01,02,14.20
2014,05,14,01,03,14.20
2014,05,14,01,04,14.20
2014,05,14,01,05,14.20
2014,05,14,01,06,14.20
2014,05,14,01,07,14.10
2014,05,14,01,08,14.10
2014,05,14,01,09,14.10
2014,05,14,01,10,14.10
2014,05,14,01,11,14.10
2014,05,14,01,12,14.00
2014,05,14,01,13,14.00
2014,05,14,01,14,14.00
2014,05,14,01,15,14.00
2014,05,14,01,16,14.00
2014,05,14,01,17,14.00
2014,05,14,01,18,13.90
2014,05,14,01,19,13.90
2014,05,14,01,20,13.90
2014,05,14,01,21,13.90
2014,05,14,01,22,13.90
2014,05,14,01,23,13.90
2014,05,14,01,24,13.90
2014,05,14,01,25,13.80
2014,05,14,01,26,13.80
2014,05,14,01,27,13.80
2014,05,14,01,28,13.80
2014,05,14,01,29,13.80
2014,05,14,01,30,13.80
2014,05,14,01,31,13.70
2014,05,14,01,32,13.70
2014,05,14,01,33,13.70
2014,05,14,01,34,13.70
2014,05,14,01,35,13.70
2014,05,14,01,36,13.70
2014,05,14,01,37,13.60
2014,05,14,01,38,13.60
2014,05,14,01,39,13.60
2014,05,14,01,40,13.60
2014,05,14,01,41,13.50
2014,05,14,01,42,13.50
2014,05,14,01,43,13.50
2014,05,14,01,44,13.40
2014,05,14,01,45,13.40
2014,05,14,01,46,13.40
2014,05,14,01,47,13.40
2014,05,14,01,48,13.30
2014,05,14,01,49,13.30
2014,05,14,01,50,13.30
2014,05,14,01,51,13.30
2014,05,14,01,52,13.30
2014,05,14,01,53,13.30
2014,05,14,01,54,13.30
2014,05,14,01,55,13.30
2014,05,14,01,56,13.30
2014,05,14,01,57,13.30
2014,05,14,01,58,13.30
2014,05,14,01,59,13.20
2014,05,14,02,00,13.20
2014,05,14,02,01,13.20
2014,05,14,02,02,13.20
2014,05,14,02,03,13.20
2014,05,14,02,04,13.20
2014,05,14,02,05,13.20
2014,05,14,02,06,13.20
2014,05,14,02,07,13.20
2014,05,14,02,08,13.10
2014,05,14,02,09,13.10
2014,05,14,02,10,13.10
2014,05,14,02,11,13.10
2014,05,14,02,12,13.10
2014,05,14,02,13,13.10
2014,05,14,02,14,13.00
2014,05,14,02,15,13.00
2014,05,14,02,16,13.00
2014,05,14,02,17,13.00
2014,05,14,02,18,13.00
2014,05,14,02,19,13.00
2014,05,14,02,20,13.00
2014,05,14,02,21,13.00
2014,05,14,02,22,13.00
2014,05,14,02,23,13.00
2014,05,14,02,24,12.90
2014,05,14,02,25,12.90
2014,05,14,02,26,12.90
2014,05,14,02,27,12.90
2014,05,14,02,28,12.80
2014,05,14,02,29,12.80
2014,05,14,02,30,12.80
2014,05,14,02,31,12.80
2014,05,14,02,32,12.80
2014,05,14,02,33,12.80
2014,05,14,02,34,12.80
2014,05,14,02,35,12.80
2014,05,14,02,36,12.80
2014,05,14,02,37,12.80
2014,05,14,02,38,12.70
2014,05,14,02,39,12.70
2014,05,14,02,40,12.70
2014,05,14,02,41,12.70
2014,05,14,02,42,12.60
2014,05,14,02,43,12.60
2014,05,14,02,44,12.60
2014,05,14,02,45,12.60
2014,05,14,02,46,12.50
2014,05,14,02,47,12.50
2014,05,14,02,48,12.50
2014,05,14,02,49,12.50
2014,05,14,02,50,12.50
2014,05,14,02,51,12.50
2014,05,14,02,52,12.40
2014,05,14,02,53,12.40
2014,05,14,02,54,12.40
2014,05,14,02,55,12.40
2014,05,14,02,56,12.40
2014,05,14,02,57,12.30
2014,05,14,02,58,12.30
2014,05,14,02,59,12.30
2014,05,14,03,00,12.30
2014,05,14,03,01,12.30
2014,05,14,03,02,12.30
2014,05,14,03,03,12.30
2014,05,14,03,04,12.30
2014,05,14,03,05,12.30
2014,05,14,03,06,12.30
2014,05,14,03,07,12.30
2014,05,14,03,08,12.30
2014,05,14,03,09,12.30
2014,05,14,03,10,12.20
2014,05,14,03,11,12.20
2014,05,14,03,12,12.20
2014,05,14,03,13,12.20
2014,05,14,03,14,12.20
2014,05,14,03,15,12.10
2014,05,14,03,16,12.10
2014,05,14,03,17,12.10
2014,05,14,03,18,12.10
2014,05,14,03,19,12.10
2014,05,14,03,20,12.00
2014,05,14,03,21,12.00
2014,05,14,03,22,12.00
2014,05,14,03,23,12.00
2014,05,14,03,24,12.00
2014,05,14,03,25,12.00
2014,05,14,03,26,12.00
2014,05,14,03,27,11.90
2014,05,14,03,28,11.90
2014,05,14,03,29,11.90
2014,05,14,03,30,11.90
2014,05,14,03,31,11.90
2014,05,14,03,32,11.80
2014,05,14,03,33,11.80
2014,05,14,03,34,11.80
2014,05,14,03,35,11.80
2014,05,14,03,36,11.80
2014,05,14,03,37,11.80
2014,05,14,03,38,11.80
2014,05,14,03,39,11.80
2014,05,14,03,40,11.80
2014,05,14,03,41,11.80
2014,05,14,03,42,11.80
2014,05,14,03,43,11.80
2014,05,14,03,44,11.80
2014,05,14,03,45,11.80
2014,05,14,03,46,11.70
2014,05,14,03,47,11.70
2014,05,14,03,48,11.70
2014,05,14,03,49,11.70
2014,05,14,03,50,11.60
2014,05,14,03,51,11.60
2014,05,14,03,52,11.60
2014,05,14,03,53,11.60
2014,05,14,03,54,11.60
2014,05,14,03,55,11.60
2014,05,14,03,56,11.60
2014,05,14,03,57,11.60
2014,05,14,03,58,11.60
2014,05,14,03,59,11.60
2014,05,14,04,00,11.60
2014,05,14,04,01,11.60
2014,05,14,04,02,11.60
2014,05,14,04,03,11.60
2014,05,14,04,04,11.60
2014,05,14,04,05,11.60
2014,05,14,04,06,11.60
2014,05,14,04,07,11.60
2014,05,14,04,08,11.60
2014,05,14,04,09,11.60
2014,05,14,04,10,11.60
2014,05,14,04,11,11.40
2014,05,14,04,12,11.40
2014,05,14,04,13,11.40
2014,05,14,04,14,11.40
2014,05,14,04,15,11.40
2014,05,14,04,16,11.40
2014,05,14,04,17,11.40
2014,05,14,04,18,11.40
2014,05,14,04,19,11.40
2014,05,14,04,20,11.40
2014,05,14,04,21,11.40
2014,05,14,04,22,11.40
2014,05,14,04,23,11.40
2014,05,14,04,24,11.40
2014,05,14,04,25,11.40
2014,05,14,04,26,11.40
2014,05,14,04,27,11.40
2014,05,14,04,28,11.40
2014,05,14,04,29,11.40
2014,05,14,04,30,11.40
2014,05,14,04,31,11.40
2014,05,14,04,32,11.40
2014,05,14,04,33,11.40
2014,05,14,04,34,11.40
2014,05,14,04,35,11.40
2014,05,14,04,36,11.40
2014,05,14,04,37,11.40
2014,05,14,04,38,11.40
2014,05,14,04,39,11.40
2014,05,14,04,40,11.40
2014,05,14,04,41,11.40
2014,05,14,04,42,11.40
2014,05,14,04,43,11.40
2014,05,14,04,44,11.40
2014,05,14,04,45,11.40
2014,05,14,04,46,11.40
2014,05,14,04,47,11.30
2014,05,14,04,48,11.30
2014,05,14,04,49,11.30
2014,05,14,04,50,11.30
2014,05,14,04,51,11.30
2014,05,14,04,52,11.30
2014,05,14,04,53,11.30
2014,05,14,04,54,11.30
2014,05,14,04,55,11.20
2014,05,14,04,56,11.20
2014,05,14,04,57,11.20
2014,05,14,04,58,11.20
2014,05,14,04,59,11.20
2014,05,14,05,00,11.20
2014,05,14,05,01,11.20
2014,05,14,05,02,11.20
2014,05,14,05,03,11.10
2014,05,14,05,04,11.10
2014,05,14,05,05,11.10
2014,05,14,05,06,11.10
2014,05,14,05,07,11.10
2014,05,14,05,08,11.10
2014,05,14,05,09,11.10
2014,05,14,05,10,11.10
2014,05,14,05,11,11.10
2014,05,14,05,12,11.10
2014,05,14,05,13,11.10
2014,05,14,05,14,11.10
2014,05,14,05,15,10.90
2014,05,14,05,16,10.90
2014,05,14,05,17,10.90
2014,05,14,05,18,10.90
2014,05,14,05,19,10.90
2014,05,14,05,20,10.90
2014,05,14,05,21,10.90
2014,05,14,05,22,10.90
2014,05,14,05,23,10.90
2014,05,14,05,24,10.90
2014,05,14,05,25,10.90
2014,05,14,05,26,10.90
2014,05,14,05,27,10.90
2014,05,14,05,28,10.90
2014,05,14,05,29,10.80
2014,05,14,05,30,10.80
2014,05,14,05,31,10.80
2014,05,14,05,32,10.80
2014,05,14,05,33,10.80
2014,05,14,05,34,10.80
2014,05,14,05,35,10.80
2014,05,14,05,36,10.80
2014,05,14,05,37,10.80
2014,05,14,05,38,10.80
2014,05,14,05,39,10.80
2014,05,14,05,40,10.80
2014,05,14,05,41,10.80
2014,05,14,05,42,10.90
2014,05,14,05,43,10.90
2014,05,14,05,44,10.90
2014,05,14,05,45,10.90
2014,05,14,05,46,10.90
2014,05,14,05,47,10.90
2014,05,14,05,48,10.90
2014,05,14,05,49,10.90
2014,05,14,05,50,10.90
2014,05,14,05,51,10.90
2014,05,14,05,52,10.90
2014,05,14,05,53,10.90
2014,05,14,05,54,10.90
2014,05,14,05,55,10.90
2014,05,14,05,56,10.90
2014,05,14,05,57,10.90
2014,05,14,05,58,10.90
2014,05,14,05,59,10.90
2014,05,14,06,00,10.90
2014,05,14,06,01,10.90
2014,05,14,06,02,10.90
2014,05,14,06,03,10.90
2014,05,14,06,04,10.90
2014,05,14,06,05,10.90
2014,05,14,06,06,10.90
2014,05,14,06,07,10.90
2014,05,14,06,08,10.90
2014,05,14,06,09,10.90
2014,05,14,06,10,10.90
2014,05,14,06,11,10.90
2014,05,14,06,12,10.90
2014,05,14,06,13,10.90
2014,05,14,06,14,10.90
2014,05,14,06,15,11.10
2014,05,14,06,16,11.10
2014,05,14,06,17,11.10
2014,05,14,06,18,11.10
2014,05,14,06,19,11.10
2014,05,14,06,20,11.10
2014,05,14,06,21,11.20
2014,05,14,06,22,11.20
2014,05,14,06,23,11.20
2014,05,14,06,24,11.20
2014,05,14,06,25,11.20
2014,05,14,06,26,11.20
2014,05,14,06,27,11.20
2014,05,14,06,28,11.20
2014,05,14,06,29,11.20
2014,05,14,06,30,11.20
2014,05,14,06,31,11.20
2014,05,14,06,32,11.20
2014,05,14,06,33,11.20
2014,05,14,06,34,11.20
2014,05,14,06,35,11.20
2014,05,14,06,36,11.20
2014,05,14,06,37,11.20
2014,05,14,06,38,11.20
2014,05,14,06,39,11.20
2014,05,14,06,40,11.20
2014,05,14,06,41,11.20
2014,05,14,06,42,11.20
2014,05,14,06,43,11.20
2014,05,14,06,44,11.20
2014,05,14,06,45,11.30
2014,05,14,06,46,11.30
2014,05,14,06,47,11.30
2014,05,14,06,48,11.30
2014,05,14,06,49,11.30
2014,05,14,06,50,11.30
2014,05,14,06,51,11.40
2014,05,14,06,52,11.40
2014,05,14,06,53,11.40
2014,05,14,06,54,11.40
2014,05,14,06,55,11.40
2014,05,14,06,56,11.40
2014,05,14,06,57,11.40
2014,05,14,06,58,11.40
2014,05,14,06,59,11.40
2014,05,14,07,00,11.60
2014,05,14,07,01,11.60
2014,05,14,07,02,11.60
2014,05,14,07,03,11.60
2014,05,14,07,04,11.60
2014,05,14,07,05,11.60
2014,05,14,07,06,11.70
2014,05,14,07,07,11.70
2014,05,14,07,08,11.80
2014,05,14,07,09,11.80
2014,05,14,07,10,11.80
2014,05,14,07,11,11.80
2014,05,14,07,12,11.80
2014,05,14,07,13,11.80
2014,05,14,07,14,11.90
2014,05,14,07,15,11.90
2014,05,14,07,16,11.90
2014,05,14,07,17,11.90
2014,05,14,07,18,11.90
2014,05,14,07,19,11.90
2014,05,14,07,20,11.90
2014,05,14,07,21,11.90
2014,05,14,07,22,11.90
2014,05,14,07,23,11.90
2014,05,14,07,24,11.90
2014,05,14,07,25,11.90
2014,05,14,07,26,11.90
2014,05,14,07,27,12.00
2014,05,14,07,28,12.00
2014,05,14,07,29,12.00
2014,05,14,07,30,12.00
2014,05,14,07,31,12.00
2014,05,14,07,32,12.10
2014,05,14,07,33,12.10
2014,05,14,07,34,12.10
2014,05,14,07,35,12.20
2014,05,14,07,36,12.20
2014,05,14,07,37,12.30
2014,05,14,07,38,12.30
2014,05,14,07,39,12.30
2014,05,14,07,40,12.30
2014,05,14,07,41,12.40
2014,05,14,07,42,12.50
2014,05,14,07,43,12.60
2014,05,14,07,44,12.60
2014,05,14,07,45,12.70
2014,05,14,07,46,12.80
2014,05,14,07,47,12.80
2014,05,14,07,48,12.80
2014,05,14,07,49,12.90
2014,05,14,07,50,13.00
2014,05,14,07,51,13.10
2014,05,14,07,52,13.20
2014,05,14,07,53,13.30
2014,05,14,07,54,13.30
2014,05,14,07,55,13.30
2014,05,14,07,56,13.40
2014,05,14,07,57,13.50
2014,05,14,07,58,13.50
2014,05,14,07,59,13.60
2014,05,14,08,00,13.60
2014,05,14,08,01,13.70
2014,05,14,08,02,13.70
2014,05,14,08,03,13.70
2014,05,14,08,04,13.70
2014,05,14,08,05,13.70
2014,05,14,08,06,13.70
2014,05,14,08,07,13.70
2014,05,14,08,08,13.70
2014,05,14,08,09,13.70
2014,05,14,08,10,13.70
2014,05,14,08,11,13.60
2014,05,14,08,12,13.60
2014,05,14,08,13,13.70
2014,05,14,08,14,13.60
2014,05,14,08,15,13.60
2014,05,14,08,16,13.60
2014,05,14,08,17,13.60
2014,05,14,08,18,13.60
2014,05,14,08,19,13.60
2014,05,14,08,20,13.60
2014,05,14,08,21,13.70
2014,05,14,08,22,13.70
2014,05,14,08,23,13.70
2014,05,14,08,24,13.80
2014,05,14,08,25,13.80
2014,05,14,08,26,13.90
2014,05,14,08,27,14.00
2014,05,14,08,28,14.00
2014,05,14,08,29,14.10
2014,05,14,08,30,14.20
2014,05,14,08,31,14.20
2014,05,14,08,32,14.20
2014,05,14,08,33,14.20
2014,05,14,08,34,14.30
2014,05,14,08,35,14.40
2014,05,14,08,36,14.50
2014,05,14,08,37,14.60
2014,05,14,08,38,14.70
2014,05,14,08,39,14.80
2014,05,14,08,40,14.90
2014,05,14,08,41,15.00
2014,05,14,08,42,15.10
2014,05,14,08,43,15.30
2014,05,14,08,44,15.30
2014,05,14,08,45,15.40
2014,05,14,08,46,15.50
2014,05,14,08,47,15.50
2014,05,14,08,48,15.60
2014,05,14,08,49,15.60
2014,05,14,08,50,15.70
2014,05,14,08,51,15.70
2014,05,14,08,52,15.80
2014,05,14,08,53,15.80
2014,05,14,08,54,15.80
2014,05,14,08,55,15.80
2014,05,14,08,56,15.90
2014,05,14,08,58,16.10
2014,05,14,08,59,16.10
2014,05,14,09,00,16.20
2014,05,14,09,01,16.20
2014,05,14,09,02,16.30
2014,05,14,09,03,16.30
2014,05,14,09,04,16.30
2014,05,14,09,05,16.30
2014,05,14,09,06,16.30
2014,05,14,09,07,16.40
2014,05,14,09,08,16.40
2014,05,14,09,09,16.40
2014,05,14,09,10,16.40
2014,05,14,09,11,16.40
2014,05,14,09,12,16.40
2014,05,14,09,13,16.60
2014,05,14,09,14,16.60
2014,05,14,09,15,16.60
2014,05,14,09,16,16.60
2014,05,14,09,17,16.60
2014,05,14,09,18,16.60
2014,05,14,09,19,16.60
2014,05,14,09,20,16.40
2014,05,14,09,21,16.40
2014,05,14,09,22,16.40
2014,05,14,09,23,16.40
2014,05,14,09,24,16.40
2014,05,14,09,25,16.40
2014,05,14,09,26,16.40
2014,05,14,09,27,16.40
2014,05,14,09,28,16.40
2014,05,14,09,29,16.40
2014,05,14,09,30,16.60
2014,05,14,09,31,16.70
2014,05,14,09,33,16.80
2014,05,14,09,35,17.00
2014,05,14,09,36,17.10
2014,05,14,09,37,17.20
2014,05,14,09,38,17.20
2014,05,14,09,39,17.20
2014,05,14,09,40,17.30
2014,05,14,09,41,17.30
2014,05,14,09,42,17.30
2014,05,14,09,43,17.30
2014,05,14,09,45,17.50
2014,05,14,09,46,17.60
2014,05,14,09,47,17.70
2014,05,14,09,48,17.80
2014,05,14,09,49,17.90
2014,05,14,09,50,17.90
2014,05,14,09,51,18.10
2014,05,14,09,52,18.10
2014,05,14,09,53,18.20
2014,05,14,09,54,18.20
2014,05,14,09,55,18.20
2014,05,14,09,56,18.20
2014,05,14,09,57,18.20
2014,05,14,09,58,18.20
2014,05,14,10,00,18.20
2014,05,14,10,01,18.20
2014,05,14,10,03,18.30
2014,05,14,10,04,18.40
2014,05,14,10,06,18.50
2014,05,14,10,07,18.50
2014,05,14,10,09,18.60
2014,05,14,10,10,18.70
2014,05,14,10,11,18.70
2014,05,14,10,12,18.80
2014,05,14,10,13,18.80
2014,05,14,10,14,18.80
2014,05,14,10,15,18.80
2014,05,14,10,16,18.80
2014,05,14,10,17,18.80
2014,05,14,10,18,18.90
2014,05,14,10,21,19.10
2014,05,14,10,22,19.10
2014,05,14,10,23,19.20
2014,05,14,10,24,19.20
2014,05,14,10,25,19.30
2014,05,14,10,26,19.30
2014,05,14,10,27,19.40
2014,05,14,10,28,19.50
2014,05,14,10,29,19.50
2014,05,14,10,31,19.60
2014,05,14,10,32,19.60
2014,05,14,10,33,19.70
2014,05,14,10,35,19.90
2014,05,14,10,36,19.90
2014,05,14,10,37,19.90
2014,05,14,10,38,20.10
2014,05,14,10,39,20.20
2014,05,14,10,40,20.20
2014,05,14,10,41,20.30
2014,05,14,10,44,20.60
2014,05,14,10,45,20.70
2014,05,14,10,49,21.10
2014,05,14,10,50,21.20
2014,05,14,10,53,21.30
2014,05,14,10,54,21.30
2014,05,14,10,55,21.30
2014,05,14,10,56,21.30
2014,05,14,10,57,21.30
2014,05,14,10,58,21.30
2014,05,14,10,59,21.30
2014,05,14,11,00,21.30
2014,05,14,11,02,21.30
2014,05,14,11,03,21.30
2014,05,14,11,04,21.40
2014,05,14,11,05,21.40
2014,05,14,11,06,21.60
2014,05,14,11,07,21.60
2014,05,14,11,08,21.60
2014,05,14,11,09,21.60
2014,05,14,11,10,21.60
2014,05,14,11,11,21.70
2014,05,14,11,12,21.70
2014,05,14,11,13,21.80
2014,05,14,11,14,21.80
2014,05,14,11,15,21.90
2014,05,14,11,16,22.00
2014,05,14,11,17,22.10
2014,05,14,11,18,22.20
2014,05,14,11,19,22.30
2014,05,14,11,20,22.40
2014,05,14,11,24,22.90
2014,05,14,11,25,23.10
2014,05,14,11,26,23.20
2014,05,14,11,27,23.30
2014,05,14,11,28,23.30
2014,05,14,11,29,23.30
2014,05,14,11,30,23.40
2014,05,14,11,31,23.60
2014,05,14,11,32,23.60
2014,05,14,11,33,23.60
2014,05,14,11,34,23.70
2014,05,14,11,35,23.70
2014,05,14,11,36,23.70
2014,05,14,11,37,23.70
2014,05,14,11,38,23.70
2014,05,14,11,39,23.70
2014,05,14,11,40,23.70
2014,05,14,11,41,23.70
2014,05,14,11,42,23.70
2014,05,14,11,43,23.70
2014,05,14,11,44,23.60
2014,05,14,11,45,23.40
2014,05,14,11,46,23.30
2014,05,14,11,47,23.30
2014,05,14,11,48,23.30
2014,05,14,11,49,23.30
2014,05,14,11,50,23.30
2014,05,14,11,51,23.30
2014,05,14,11,52,23.30
2014,05,14,11,53,23.40
2014,05,14,11,54,23.60
2014,05,14,11,55,23.70
2014,05,14,11,56,23.70
2014,05,14,11,57,23.80
2014,05,14,11,58,23.80
2014,05,14,11,59,23.80
2014,05,14,12,00,23.90
2014,05,14,12,01,23.90
2014,05,14,12,02,23.90
2014,05,14,12,03,23.90
2014,05,14,12,04,23.90
2014,05,14,12,05,23.90
2014,05,14,12,06,24.10
2014,05,14,12,07,24.10
2014,05,14,12,08,24.10
2014,05,14,12,09,24.30
2014,05,14,12,10,24.40
2014,05,14,12,11,24.60
2014,05,14,12,12,24.70
2014,05,14,12,13,24.90
2014,05,14,12,14,25.00
2014,05,14,12,15,25.10
2014,05,14,12,16,25.20
2014,05,14,12,17,25.30
2014,05,14,12,18,25.40
2014,05,14,12,19,25.40
2014,05,14,12,20,25.50
2014,05,14,12,21,25.50
2014,05,14,12,22,25.60
2014,05,14,12,23,25.60
2014,05,14,12,24,25.60
2014,05,14,12,25,25.60
2014,05,14,12,26,25.60
2014,05,14,12,27,25.50
2014,05,14,12,28,25.60
2014,05,14,12,29,25.60
2014,05,14,12,30,25.60
2014,05,14,12,31,25.70
2014,05,14,12,32,25.80
2014,05,14,12,33,25.90
2014,05,14,12,34,25.90
2014,05,14,12,35,25.90
2014,05,14,12,36,25.90
2014,05,14,12,37,25.90
2014,05,14,12,38,25.80
2014,05,14,12,39,25.70
2014,05,14,12,40,25.60
2014,05,14,12,41,25.60
2014,05,14,12,42,25.60
2014,05,14,12,43,25.70
2014,05,14,12,44,25.80
2014,05,14,12,45,25.90
2014,05,14,12,46,26.00
2014,05,14,12,47,26.10
2014,05,14,12,48,26.20
2014,05,14,12,49,26.30
2014,05,14,12,50,26.40
2014,05,14,12,51,26.60
2014,05,14,12,52,26.60
2014,05,14,12,53,26.60
2014,05,14,12,54,26.60
2014,05,14,12,55,26.60
2014,05,14,12,56,26.60
2014,05,14,12,57,26.60
2014,05,14,12,58,26.60
2014,05,14,12,59,26.40
2014,05,14,13,00,26.30
2014,05,14,13,01,26.30
2014,05,14,13,02,26.20
2014,05,14,13,03,26.20
2014,05,14,13,04,26.20
2014,05,14,13,05,26.30
2014,05,14,13,06,26.40
2014,05,14,13,07,26.40
2014,05,14,13,08,26.60
2014,05,14,13,09,26.60
2014,05,14,13,10,26.60
2014,05,14,13,11,26.70
2014,05,14,13,12,26.80
2014,05,14,13,13,26.90
2014,05,14,13,14,27.10
2014,05,14,13,15,27.10
2014,05,14,13,16,27.20
2014,05,14,13,17,27.20
2014,05,14,13,18,27.30
2014,05,14,13,19,27.30
2014,05,14,13,20,27.40
2014,05,14,13,21,27.60
2014,05,14,13,22,27.70
2014,05,14,13,23,27.80
2014,05,14,13,24,27.90
2014,05,14,13,25,27.90
2014,05,14,13,26,27.90
2014,05,14,13,27,27.90
2014,05,14,13,28,27.90
2014,05,14,13,29,27.80
2014,05,14,13,30,27.70
2014,05,14,13,31,27.60
2014,05,14,13,32,27.60
2014,05,14,13,33,27.40
2014,05,14,13,34,27.40
2014,05,14,13,35,27.40
2014,05,14,13,36,27.40
2014,05,14,13,37,27.40
2014,05,14,13,38,27.60
2014,05,14,13,39,27.60
2014,05,14,13,40,27.60
2014,05,14,13,41,27.70
2014,05,14,13,42,27.80
2014,05,14,13,43,27.90
2014,05,14,13,44,27.90
2014,05,14,13,45,28.00
2014,05,14,13,46,28.10
2014,05,14,13,47,28.10
2014,05,14,13,48,28.10
2014,05,14,13,49,28.20
2014,05,14,13,50,28.20
2014,05,14,13,51,28.30
2014,05,14,13,52,28.30
2014,05,14,13,53,28.30
2014,05,14,13,54,28.30
2014,05,14,13,55,28.30
2014,05,14,13,56,28.20
2014,05,14,13,57,28.30
2014,05,14,13,58,28.30
2014,05,14,13,59,28.40
2014,05,14,14,00,28.60
2014,05,14,14,01,28.60
2014,05,14,14,02,28.60
2014,05,14,14,03,28.60
2014,05,14,14,04,28.60
2014,05,14,14,05,28.60
2014,05,14,14,06,28.60
2014,05,14,14,07,28.60
2014,05,14,14,08,28.60
2014,05,14,14,09,28.60
2014,05,14,14,10,28.60
2014,05,14,14,11,28.60
2014,05,14,14,12,28.70
2014,05,14,14,13,28.70
2014,05,14,14,14,28.70
2014,05,14,14,15,28.70
2014,05,14,14,16,28.70
2014,05,14,14,17,28.70
2014,05,14,14,18,28.70
2014,05,14,14,19,28.70
2014,05,14,14,20,28.80
2014,05,14,14,21,28.90
2014,05,14,14,22,28.90
2014,05,14,14,23,29.10
2014,05,14,14,24,29.20
2014,05,14,14,25,29.30
2014,05,14,14,26,29.40
2014,05,14,14,27,29.40
2014,05,14,14,28,29.40
2014,05,14,14,29,29.40
2014,05,14,14,30,29.40
2014,05,14,14,31,29.40
2014,05,14,14,32,29.40
2014,05,14,14,33,29.40
2014,05,14,14,34,29.50
2014,05,14,14,35,29.50
2014,05,14,14,36,29.60
2014,05,14,14,37,29.60
2014,05,14,14,38,29.60
2014,05,14,14,39,29.60
2014,05,14,14,40,29.60
2014,05,14,14,41,29.60
2014,05,14,14,42,29.60
2014,05,14,14,43,29.50
2014,05,14,14,44,29.50
2014,05,14,14,45,29.50
2014,05,14,14,46,29.60
2014,05,14,14,47,29.60
2014,05,14,14,48,29.60
2014,05,14,14,49,29.70
2014,05,14,14,50,29.70
2014,05,14,14,51,29.70
2014,05,14,14,52,29.80
2014,05,14,14,53,29.80
2014,05,14,14,54,29.80
2014,05,14,14,55,29.90
2014,05,14,14,56,29.90
2014,05,14,14,57,30.10
2014,05,14,14,58,30.10
2014,05,14,14,59,30.10
2014,05,14,15,00,30.20
2014,05,14,15,01,30.20
2014,05,14,15,02,30.20
2014,05,14,15,03,30.30
2014,05,14,15,04,30.30
2014,05,14,15,05,30.20
2014,05,14,15,06,30.20
2014,05,14,15,07,30.20
2014,05,14,15,08,30.10
2014,05,14,15,09,30.10
2014,05,14,15,10,30.10
2014,05,14,15,11,30.20
2014,05,14,15,12,30.30
2014,05,14,15,13,30.30
2014,05,14,15,14,30.30
2014,05,14,15,15,30.40
2014,05,14,15,16,30.60
2014,05,14,15,17,30.60
2014,05,14,15,18,30.70
2014,05,14,15,19,30.70
2014,05,14,15,20,30.80
2014,05,14,15,21,30.80
2014,05,14,15,22,30.90
2014,05,14,15,23,30.90
2014,05,14,15,24,31.10
2014,05,14,15,25,31.10
2014,05,14,15,26,31.20
2014,05,14,15,27,31.20
2014,05,14,15,28,31.20
2014,05,14,15,29,31.20
2014,05,14,15,30,31.20
2014,05,14,15,31,31.20
2014,05,14,15,32,31.20
2014,05,14,15,33,31.30
2014,05,14,15,34,31.30
2014,05,14,15,35,31.40
2014,05,14,15,36,31.30
2014,05,14,15,37,31.20
2014,05,14,15,38,31.10
2014,05,14,15,39,31.10
2014,05,14,15,40,31.00
2014,05,14,15,41,31.00
2014,05,14,15,42,31.00
2014,05,14,15,43,31.00
2014,05,14,15,44,31.10
2014,05,14,15,45,31.10
2014,05,14,15,46,31.10
2014,05,14,15,47,31.20
2014,05,14,15,48,31.20
2014,05,14,15,49,31.30
2014,05,14,15,50,31.30
2014,05,14,15,51,31.40
2014,05,14,15,52,31.40
2014,05,14,15,53,31.40
2014,05,14,15,54,31.40
2014,05,14,15,55,31.40
2014,05,14,15,56,31.30
2014,05,14,15,57,31.20
2014,05,14,15,58,31.20
2014,05,14,15,59,31.30
2014,05,14,16,00,31.40
2014,05,14,16,01,31.40
2014,05,14,16,02,31.40
2014,05,14,16,03,31.40
2014,05,14,16,04,31.60
2014,05,14,16,05,31.70
2014,05,14,16,06,31.70
2014,05,14,16,07,31.80
2014,05,14,16,08,31.80
2014,05,14,16,09,31.90
2014,05,14,16,10,31.90
2014,05,14,16,11,31.90
2014,05,14,16,12,32.10
2014,05,14,16,13,32.10
2014,05,14,16,14,31.90
2014,05,14,16,15,31.90
2014,05,14,16,16,31.90
2014,05,14,16,17,31.90
2014,05,14,16,18,31.90
2014,05,14,16,19,31.90
2014,05,14,16,20,32.10
2014,05,14,16,21,32.20
2014,05,14,16,22,32.20
2014,05,14,16,23,32.10
2014,05,14,16,24,31.80
2014,05,14,16,25,31.80
2014,05,14,16,26,31.80
2014,05,14,16,27,31.70
2014,05,14,16,28,31.60
2014,05,14,16,29,31.60
2014,05,14,16,30,31.60
2014,05,14,16,31,31.60
2014,05,14,16,32,31.40
2014,05,14,16,33,31.40
2014,05,14,16,34,31.30
2014,05,14,16,35,31.20
2014,05,14,16,36,31.10
2014,05,14,16,37,30.90
2014,05,14,16,38,30.80
2014,05,14,16,39,30.80
2014,05,14,16,40,30.70
2014,05,14,16,41,30.70
2014,05,14,16,42,30.70
2014,05,14,16,43,30.70
2014,05,14,16,44,30.70
2014,05,14,16,45,30.70
2014,05,14,16,46,30.70
2014,05,14,16,47,30.80
2014,05,14,16,48,30.80
2014,05,14,16,49,30.80
2014,05,14,16,50,30.70
2014,05,14,16,51,30.40
2014,05,14,16,52,30.20
2014,05,14,16,53,29.90
2014,05,14,16,54,29.80
2014,05,14,16,55,29.70
2014,05,14,16,56,29.60
2014,05,14,16,57,29.50
2014,05,14,16,58,29.30
2014,05,14,16,59,29.10
2014,05,14,17,00,28.90
2014,05,14,17,01,28.70
2014,05,14,17,02,28.70
2014,05,14,17,03,28.60
2014,05,14,17,04,28.60
2014,05,14,17,05,28.70
2014,05,14,17,06,28.70
2014,05,14,17,07,28.70
2014,05,14,17,08,28.70
2014,05,14,17,09,28.60
2014,05,14,17,10,28.60
2014,05,14,17,11,28.60
2014,05,14,17,12,28.60
2014,05,14,17,13,28.60
2014,05,14,17,14,28.60
2014,05,14,17,15,28.60
2014,05,14,17,16,28.40
2014,05,14,17,17,28.40
2014,05,14,17,18,28.40
2014,05,14,17,19,28.30
2014,05,14,17,20,28.30
2014,05,14,17,21,28.40
2014,05,14,17,22,28.40
2014,05,14,17,23,28.40
2014,05,14,17,24,28.40
2014,05,14,17,25,28.40
2014,05,14,17,26,28.40
2014,05,14,17,27,28.40
2014,05,14,17,28,28.40
2014,05,14,17,29,28.40
2014,05,14,17,30,28.40
2014,05,14,17,31,28.40
2014,05,14,17,32,28.40
2014,05,14,17,33,28.40
2014,05,14,17,34,28.60
2014,05,14,17,35,28.60
2014,05,14,17,36,28.80
2014,05,14,17,37,28.90
2014,05,14,17,38,28.90
2014,05,14,17,39,28.90
2014,05,14,17,40,28.80
2014,05,14,17,41,28.80
2014,05,14,17,42,28.80